Wind_Speed
74 76 76 72 73 72 70 69 68 67 64 62 62 62 60 59 59 57 56 53 54 54 55 56 55 53 55 55 55 56 58 59 60 62 66 67 68 68 70 71 72 73 75
76 76 74 74 74 73 70 69 68 66 63 62 62 62 60 59 58 57 55 54 50 55 56 56 54 54 56 55 55 55 57 59 61 62 66 67 69 70 71 72 72 73 75
77 78 77 75 75 75 73 71 70 68 64 62 61 62 61 60 58 57 56 53 51 55 56 57 54 53 55 56 54 55 56 59 62 62 65 67 69 71 71 71 72 73 74
77 80 80 77 77 77 76 73 72 70 67 63 63 62 61 63 62 58 54 54 54 56 57 57 54 55 55 55 55 55 56 58 61 62 65 67 69 72 71 74 71 73 74
80 78 84 82 79 77 77 76 72 71 70 66 63 61 62 63 61 58 56 56 57 57 59 59 56 56 56 55 58 56 57 59 59 62 64 67 69 72 70 74 73 72 74
85 81 81 86 82 79 79 78 76 73 73 70 67 65 63 61 59 58 59 61 60 58 60 60 57 57 56 57 59 59 60 60 59 60 63 67 69 72 69 71 73 71 73
88 87 82 83 86 82 79 79 78 76 74 75 74 71 68 63 62 63 63 63 62 61 62 62 60 58 59 59 60 60 59 60 60 60 63 67 68 70 68 69 70 70 71
94 92 88 84 86 87 83 79 77 76 77 77 76 74 72 69 68 68 67 66 64 61 64 65 63 61 61 63 61 60 59 60 60 62 63 67 68 68 67 68 69 69 70
96 95 92 88 85 84 84 84 80 79 80 79 78 75 73 71 71 70 70 69 65 65 67 67 63 64 64 63 61 59 58 61 59 62 63 66 66 67 67 67 68 68 69
96 97 94 90 88 85 83 83 84 84 82 81 79 76 74 73 73 72 71 67 65 67 70 69 67 65 66 65 61 59 61 60 59 62 63 65 65 68 67 66 65 67 67
98 98 96 94 91 90 87 84 82 83 83 80 77 76 74 72 72 72 69 69 69 72 71 70 68 68 65 63 62 61 61 60 61 62 63 63 67 68 67 65 66 66 66
103 99 98 96 95 92 91 89 86 84 82 78 78 76 75 76 75 72 70 71 73 75 71 69 67 67 67 67 61 64 61 60 61 61 63 65 68 68 66 64 65 65 65
98 102 99 99 96 95 91 89 88 85 83 81 78 76 76 76 76 74 76 77 78 73 70 69 69 69 69 64 64 63 60 61 60 63 64 66 68 68 66 64 64 64 64
90 97 101 99 98 96 94 91 88 85 83 82 80 79 79 76 73 74 75 75 76 75 73 70 69 68 64 68 67 64 61 61 62 62 65 67 68 68 65 65 63 64 65
91 89 95 100 98 98 94 93 88 89 88 86 85 84 81 77 77 78 78 77 78 76 71 71 71 70 73 70 64 64 62 63 66 67 67 69 69 69 66 65 63 64 64
93 89 87 91 100 99 96 93 92 90 87 88 87 84 80 81 82 80 79 79 79 77 75 79 78 70 69 70 68 68 68 67 68 69 69 69 70 69 69 66 64 65 64
96 92 87 84 87 97 99 95 93 90 89 87 84 83 82 82 82 82 80 82 82 81 82 80 74 72 76 77 76 72 70 67 69 71 70 71 72 71 71 67 66 66 65
91 93 89 84 82 85 94 98 96 93 89 87 86 83 85 88 90 87 86 87 82 79 80 76 71 70 73 72 71 68 67 69 70 71 70 73 73 74 71 68 68 67 67
84 89 89 85 82 80 82 90 96 95 92 89 88 87 87 88 89 86 85 83 79 81 81 78 74 74 75 75 73 71 71 71 72 72 75 75 75 74 72 70 69 69 69
82 84 87 87 85 81 78 80 82 90 94 94 94 94 93 92 91 89 85 83 83 84 82 81 80 79 79 79 78 76 74 74 76 79 79 78 77 75 73 71 71 72 72
81 79 82 85 86 83 81 78 77 79 85 91 94 96 95 94 93 90 89 90 90 89 86 87 86 85 82 81 79 80 81 82 82 81 82 80 78 77 73 73 74 75 75
78 77 76 79 83 85 83 82 79 77 80 83 87 91 94 95 95 96 95 93 91 90 90 89 89 88 86 86 85 84 84 85 85 83 81 80 78 76 76 76 77 78 79
77 75 73 73 77 82 84 84 82 80 77 78 81 83 84 87 90 92 92 92 92 91 92 91 91 90 88 86 85 83 83 84 83 83 83 81 80 80 80 80 80 81 82
72 73 73 71 71 77 82 83 83 80 79 78 78 79 81 82 82 83 84 85 86 87 88 88 88 89 88 86 84 83 84 85 86 85 85 85 83 85 84 83 84 81 75
67 70 72 72 72 73 79 84 85 84 83 81 81 80 80 80 80 81 82 83 83 83 84 84 85 85 85 85 86 85 86 87 87 88 89 90 88 86 84 82 79 75 72
65 68 70 72 71 72 76 82 86 85 84 84 83 83 83 83 84 85 85 86 87 87 87 88 89 89 89 90 89 89 89 90 90 89 89 88 87 85 81 78 74 73 74
Wind_Direction
230 231 232 231 232 233 234 235 235 237 238 241 243 246 248 251 253 256 257 260 265 268 273 280 286 289 292 296 300 302 304 309 315 317 321 322 325 326 328 330 331 333 337
228 230 231 231 232 232 232 233 234 234 236 240 243 245 248 251 253 254 256 259 262 266 272 279 284 287 290 295 297 300 303 306 311 316 319 321 324 325 327 328 331 333 336
228 229 230 230 231 232 231 232 233 233 234 238 241 244 247 250 251 253 255 257 260 265 271 276 281 285 288 292 296 297 301 303 307 313 316 320 322 324 325 327 330 332 334
228 228 229 228 229 230 230 230 232 232 233 236 241 245 248 250 252 253 253 256 258 263 269 275 282 283 285 290 293 296 300 301 305 309 313 319 320 323 323 326 329 331 334
226 228 229 228 228 229 230 230 231 233 233 234 238 244 248 249 252 252 253 254 258 264 269 274 278 282 285 289 291 294 299 300 303 306 311 316 318 322 321 325 328 332 333
225 226 229 228 228 229 231 231 231 233 234 234 236 239 243 247 251 252 250 254 258 263 267 272 277 280 283 287 290 293 297 299 301 304 307 314 317 320 319 323 327 329 332
226 226 228 230 228 227 229 231 232 232 234 236 237 239 240 243 247 249 251 255 259 263 266 271 275 278 280 286 289 293 295 298 299 301 305 311 315 317 318 321 326 328 331
225 225 227 229 230 228 226 229 231 233 235 236 239 240 241 243 245 249 253 256 259 262 265 269 273 276 279 286 287 291 294 296 297 299 303 308 313 316 317 320 324 327 330
222 224 225 227 229 230 229 229 230 232 234 235 236 239 241 244 248 251 253 255 258 261 265 267 272 274 279 285 286 290 292 294 297 297 301 307 311 313 315 317 323 325 329
221 223 224 225 227 229 230 231 231 232 234 236 237 239 243 246 248 250 253 257 258 260 261 268 271 272 278 285 284 288 290 292 295 294 299 305 309 311 314 315 319 323 327
221 221 223 223 225 228 230 231 232 233 235 237 239 241 243 244 247 250 252 254 256 259 263 269 272 275 279 281 283 287 288 293 292 292 298 302 306 310 313 314 317 322 326
222 221 221 223 225 227 229 232 233 234 236 238 241 243 243 246 247 249 252 254 256 261 266 271 273 275 278 280 280 286 285 289 290 293 296 298 304 309 311 312 315 320 325
222 222 221 222 224 227 229 231 233 235 236 238 240 242 245 247 251 254 253 255 259 263 267 269 272 275 276 276 283 283 285 286 288 291 293 297 302 308 309 310 312 317 323
221 222 221 221 223 225 227 230 233 235 237 238 240 241 243 246 249 251 253 256 261 265 268 270 271 272 270 278 281 278 282 283 285 287 290 296 301 306 307 308 310 314 320
219 222 223 223 222 224 227 229 231 233 236 237 239 241 244 247 248 251 255 258 259 262 264 266 268 267 274 276 274 276 279 281 282 284 289 294 298 303 305 306 307 311 317
220 221 222 224 224 223 226 228 230 233 235 238 241 244 246 247 249 252 254 255 258 260 263 266 270 271 270 271 272 275 279 280 280 282 286 292 297 301 302 304 305 309 314
219 221 223 224 226 225 225 228 230 232 235 238 240 242 244 246 248 250 252 255 259 263 265 266 267 268 268 271 274 276 278 278 279 281 284 289 294 298 301 301 303 306 311
220 221 222 224 227 227 227 227 229 232 234 237 239 241 243 245 247 249 253 256 259 261 263 264 267 268 270 272 273 275 276 276 278 279 282 287 291 296 297 299 301 304 309
221 222 222 223 227 229 230 229 229 232 234 236 239 240 243 245 247 249 251 254 258 260 262 264 266 266 269 271 272 274 275 275 275 278 281 285 290 293 295 297 299 303 306
222 223 224 223 227 229 232 232 231 232 234 236 238 240 242 245 248 251 253 256 256 258 261 263 265 266 269 271 273 274 273 273 274 277 281 284 287 291 293 294 297 300 303
222 224 225 225 227 229 232 234 233 233 234 236 239 241 244 246 249 250 252 254 255 258 262 263 266 268 270 270 269 269 271 273 275 277 279 282 286 289 291 293 296 299 302
221 225 225 226 227 229 232 235 236 235 236 237 238 240 243 245 248 250 252 256 258 260 261 263 264 266 268 269 271 272 272 272 274 277 280 284 286 288 290 292 294 297 299
221 225 227 228 228 229 230 233 236 238 239 239 240 242 244 246 248 250 251 252 254 256 258 261 263 265 267 269 271 272 273 274 276 279 281 284 284 286 288 290 292 293 297
222 224 228 229 230 230 229 232 236 238 240 242 244 244 245 247 248 250 252 254 256 257 259 261 263 264 265 267 268 270 271 273 276 278 278 280 283 284 286 288 290 295 293
221 223 227 230 231 232 231 231 233 236 239 241 243 246 249 250 252 253 253 254 256 257 258 259 261 263 265 267 268 269 270 271 274 275 277 279 282 284 286 289 291 290 292
223 225 228 231 232 234 234 233 233 236 239 241 244 246 248 249 251 253 255 257 259 260 261 262 263 265 266 267 269 271 273 274 276 278 279 280 282 284 285 285 286 286 288
Height
10439 10447 10460 10472 10478 10485 10497 10504 10512 10519 10527 10532 10538 10543 10547 10552 10555 10557 10559 10560 10559 10559 10559 10559 10557 10556 10554 10550 10545 10540 10535 10529 10525 10518 10511 10502 10493 10484 10474 10464 10453 10441 10429
10423 10431 10444 10455 10463 10470 10480 10488 10494 10503 10511 10517 10524 10529 10534 10538 10541 10544 10546 10547 10546 10546 10547 10547 10546 10544 10542 10539 10536 10531 10526 10521 10515 10510 10503 10495 10485 10474 10465 10455 10446 10433 10422
10407 10416 10427 10438 10447 10453 10462 10470 10479 10488 10495 10502 10508 10513 10519 10524 10526 10529 10532 10534 10535 10534 10535 10536 10535 10533 10532 10530 10526 10522 10518 10513 10507 10501 10494 10486 10476 10465 10458 10449 10440 10428 10416
10391 10400 10409 10420 10429 10436 10445 10454 10463 10472 10480 10487 10494 10500 10505 10509 10511 10515 10519 10521 10522 10521 10522 10524 10524 10523 10521 10519 10516 10512 10508 10504 10498 10492 10486 10478 10469 10458 10448 10439 10433 10422 10409
10373 10382 10389 10401 10412 10422 10431 10440 10449 10457 10464 10472 10478 10485 10489 10493 10497 10501 10504 10507 10509 10510 10509 10510 10511 10510 10509 10507 10505 10503 10499 10494 10489 10483 10477 10469 10461 10451 10441 10431 10421 10412 10402
10353 10363 10371 10383 10395 10406 10415 10424 10432 10441 10448 10455 10461 10467 10472 10477 10483 10486 10490 10493 10495 10497 10495 10495 10497 10498 10497 10495 10494 10491 10488 10484 10480 10475 10468 10460 10452 10443 10435 10425 10416 10406 10396
10332 10344 10353 10362 10376 10387 10397 10407 10417 10425 10432 10438 10444 10451 10456 10462 10467 10471 10476 10479 10482 10483 10482 10482 10484 10485 10484 10483 10482 10480 10477 10473 10469 10464 10458 10451 10443 10435 10427 10420 10409 10400 10389
10308 10322 10333 10344 10354 10367 10380 10391 10400 10409 10414 10420 10428 10434 10441 10447 10452 10456 10461 10464 10467 10469 10468 10468 10471 10471 10471 10471 10470 10468 10465 10461 10458 10453 10448 10441 10434 10426 10418 10411 10403 10394 10384
10285 10299 10313 10325 10336 10349 10363 10373 10382 10390 10396 10401 10408 10417 10425 10432 10438 10442 10445 10448 10451 10453 10452 10454 10457 10457 10458 10458 10457 10455 10452 10449 10446 10442 10437 10431 10425 10417 10410 10403 10396 10387 10378
10263 10277 10293 10307 10319 10331 10341 10352 10362 10370 10376 10385 10394 10403 10410 10417 10421 10425 10428 10432 10435 10435 10434 10440 10443 10443 10444 10443 10443 10442 10440 10437 10434 10430 10426 10421 10415 10408 10402 10395 10388 10381 10372
10242 10257 10273 10287 10299 10310 10321 10333 10343 10352 10362 10372 10380 10388 10396 10401 10405 10409 10413 10416 10418 10417 10420 10426 10428 10429 10429 10429 10429 10429 10427 10425 10421 10418 10415 10410 10404 10398 10393 10386 10380 10372 10364
10220 10236 10252 10266 10280 10291 10303 10314 10324 10335 10345 10356 10364 10372 10378 10383 10388 10394 10398 10398 10398 10400 10408 10411 10413 10413 10414 10414 10414 10415 10414 10411 10409 10407 10403 10398 10393 10388 10383 10377 10371 10364 10357
10196 10213 10230 10245 10260 10272 10284 10295 10306 10317 10328 10337 10345 10353 10358 10365 10373 10378 10378 10380 10382 10387 10393 10395 10397 10397 10397 10399 10400 10400 10398 10397 10396 10394 10390 10385 10381 10379 10373 10367 10361 10356 10349
10176 10191 10209 10224 10240 10252 10264 10276 10288 10300 10310 10318 10327 10333 10338 10348 10355 10358 10360 10364 10367 10371 10377 10380 10380 10380 10383 10383 10384 10385 10384 10384 10383 10380 10376 10373 10369 10366 10362 10357 10351 10345 10340
10157 10172 10189 10204 10220 10233 10247 10258 10270 10279 10287 10295 10303 10311 10321 10333 10335 10338 10344 10348 10350 10356 10360 10361 10362 10364 10367 10368 10369 10370 10370 10370 10367 10365 10363 10360 10357 10354 10350 10345 10341 10336 10331
10138 10154 10170 10185 10199 10213 10228 10239 10250 10260 10270 10279 10288 10298 10308 10312 10317 10321 10326 10329 10333 10338 10342 10341 10344 10347 10348 10350 10353 10354 10355 10354 10351 10350 10348 10346 10343 10340 10337 10333 10328 10325 10320
10120 10136 10152 10167 10179 10194 10208 10220 10232 10240 10251 10261 10271 10280 10287 10293 10298 10302 10308 10311 10315 10320 10320 10321 10325 10329 10330 10333 10335 10337 10338 10337 10336 10334 10333 10332 10329 10326 10323 10320 10316 10312 10309
10103 10119 10135 10150 10161 10174 10187 10200 10213 10223 10235 10244 10252 10261 10267 10272 10275 10284 10290 10293 10298 10299 10298 10302 10307 10310 10310 10313 10317 10318 10319 10319 10318 10317 10317 10317 10315 10312 10308 10305 10302 10299 10296
10087 10102 10118 10134 10144 10156 10168 10181 10194 10205 10216 10226 10233 10240 10245 10249 10252 10262 10269 10276 10281 10279 10279 10284 10288 10290 10291 10294 10297 10300 10300 10299 10299 10300 10300 10300 10299 10297 10293 10290 10287 10284 10282
10071 10086 10100 10116 10127 10140 10150 10161 10175 10185 10195 10204 10210 10215 10221 10227 10234 10242 10252 10258 10259 10259 10262 10264 10267 10270 10273 10275 10278 10281 10279 10280 10281 10281 10282 10282 10281 10281 10278 10275 10272 10269 10268
10057 10071 10085 10098 10111 10123 10133 10142 10155 10165 10173 10181 10188 10195 10203 10208 10216 10223 10228 10231 10234 10240 10244 10244 10246 10251 10253 10255 10257 10258 10259 10260 10261 10262 10262 10263 10263 10263 10261 10258 10255 10254 10252
10044 10057 10070 10082 10094 10106 10117 10125 10134 10144 10152 10159 10167 10174 10180 10187 10193 10199 10205 10212 10216 10219 10221 10223 10226 10229 10232 10233 10235 10237 10238 10239 10240 10241 10243 10243 10243 10243 10242 10240 10238 10236 10235
10032 10044 10056 10067 10077 10087 10098 10105 10113 10123 10131 10139 10146 10153 10159 10166 10171 10176 10182 10188 10192 10195 10198 10200 10204 10207 10210 10212 10214 10215 10215 10216 10218 10219 10220 10221 10221 10222 10222 10221 10220 10218 10217
10022 10033 10042 10052 10062 10071 10081 10089 10097 10106 10112 10118 10124 10130 10136 10142 10147 10152 10158 10163 10168 10172 10175 10178 10182 10184 10186 10188 10190 10192 10193 10194 10195 10196 10197 10198 10200 10201 10201 10201 10200 10199 10196
10011 10020 10027 10035 10043 10052 10060 10069 10076 10083 10090 10098 10104 10109 10114 10119 10125 10130 10134 10139 10143 10147 10150 10153 10157 10160 10162 10164 10166 10168 10170 10171 10172 10173 10174 10175 10176 10177 10177 10177 10178 10177 10177
9996 10005 10013 10020 10028 10035 10042 10050 10057 10064 10071 10077 10083 10088 10093 10098 10102 10107 10111 10115 10119 10123 10126 10129 10131 10134 10136 10138 10140 10142 10144 10145 10146 10147 10149 10150 10151 10151 10152 10154 10155 10156 10156